Huntsville Madison, AL

8:44 AM CDT on March 24, 2017 (GMT -0500)
Huntsville Madison

Weather History for KMDQ - February, 2012

Change the Weather History Date:

Friday, February 24, 2012

  Actual Average (KHSV) Record (KHSV)
Temperature  
Mean Temperature 54 °F -  
Max Temperature 68 °F 57 °F 81 °F (2017)
Min Temperature 37 °F 36 °F 14 °F (1967)
Degree Days  
Heating Degree Days 10    
Growing Degree Days 4 (Base 50)    
Moisture  
Dew Point 38 °F    
Average Humidity 56    
Maximum Humidity 83    
Minimum Humidity 30    
Precipitation  
Precipitation 0.00 in - - ()
Sea Level Pressure  
Sea Level Pressure 29.85 in    
Wind  
Wind Speed 14 mph (WNW)    
Max Wind Speed 22 mph    
Max Gust Speed 37 mph    
Visibility 10 miles    
Events Thunderstorm    
Averages and records for this station are not official NWS values.
T = Trace of Precipitation, MM = Missing Value Source: NWS Daily Summary

Daily Weather History Graph

Daily Weather History Graph

Search for Another Location

Airport or City:

Trip Planner

Search our weather history database for the weather conditions in past years. The results will help you decide how hot, cold, wet, or windy it might be!

Date:

Astronomy

Feb. 24, 2012 Rise Set
Actual Time 6:22 AM CST 5:37 PM CST
Civil Twilight 5:56 AM CST 6:02 PM CST
Nautical Twilight 5:27 AM CST 6:32 PM CST
Astronomical Twilight 4:58 AM CST 7:01 PM CST
Moon 7:25 AM CST 8:29 PM CST
Length of Visible Light 12h 05m
Length of Day
11h 14m
Waxing Crescent, 8% of the Moon is Illuminated
Feb 24
Waxing Crescent
Feb 29
First Quarter
Mar 8
Full
Mar 14
Last Quarter
Mar 22
New

Hourly Weather History & Observations

Time (CST) Temp. Windchill Dew Point Humidity Pressure Visibility Wind Dir Wind Speed Gust Speed Precip Events Conditions
12:15 AM 68.0 °F - 60.8 °F 78% 29.56 in 10.0 mi SSW 17.3 mph 25.3 mph N/A   Scattered Clouds
12:35 AM 68.0 °F - 60.8 °F 78% 29.56 in 10.0 mi SSW 17.3 mph 23.0 mph N/A   Scattered Clouds
12:55 AM 68.0 °F - 60.8 °F 78% 29.57 in 10.0 mi SSW 16.1 mph 19.6 mph N/A   Clear
1:15 AM 68.0 °F - 60.8 °F 78% 29.58 in 10.0 mi SSW 13.8 mph 20.7 mph N/A   Scattered Clouds
1:35 AM 68.0 °F - 60.8 °F 78% 29.58 in 10.0 mi SW 17.3 mph 24.2 mph N/A   Scattered Clouds
2:15 AM 68.0 °F - 60.8 °F 78% 29.59 in 10.0 mi SW 15.0 mph 21.9 mph N/A   Clear
2:35 AM 68.0 °F - 60.8 °F 78% 29.59 in 10.0 mi SW 13.8 mph - N/A   Scattered Clouds
2:55 AM 68.0 °F - 60.8 °F 78% 29.59 in 10.0 mi SW 10.4 mph 17.3 mph N/A   Scattered Clouds
3:15 AM 68.0 °F - 60.8 °F 78% 29.60 in 10.0 mi SSW 15.0 mph 19.6 mph N/A   Scattered Clouds
3:35 AM 68.0 °F - 60.8 °F 78% 29.60 in 10.0 mi SW 11.5 mph 17.3 mph N/A   Scattered Clouds
3:55 AM 66.2 °F - 60.8 °F 83% 29.60 in 10.0 mi WSW 9.2 mph 17.3 mph N/A   Scattered Clouds
4:15 AM 66.2 °F - 60.8 °F 83% 29.61 in 10.0 mi WSW 11.5 mph - N/A   Scattered Clouds
4:35 AM 64.4 °F - 51.8 °F 64% 29.64 in 10.0 mi West 16.1 mph 19.6 mph N/A   Mostly Cloudy
4:55 AM 62.6 °F - 44.6 °F 52% 29.64 in 10.0 mi WNW 10.4 mph 17.3 mph N/A   Scattered Clouds
5:15 AM 60.8 °F - 44.6 °F 55% 29.65 in 10.0 mi West 11.5 mph 21.9 mph N/A   Clear
5:35 AM 59.0 °F - 44.6 °F 59% 29.66 in 10.0 mi WNW 13.8 mph - N/A   Clear
5:55 AM 59.0 °F - 44.6 °F 59% 29.68 in 10.0 mi WNW 10.4 mph - N/A   Clear
6:15 AM 57.2 °F - 44.6 °F 63% 29.69 in 10.0 mi NW 9.2 mph - N/A Thunderstorm Mostly Cloudy
6:35 AM 57.2 °F - 44.6 °F 63% 29.71 in 10.0 mi WNW 13.8 mph 18.4 mph N/A   Overcast
6:55 AM 55.4 °F - 42.8 °F 63% 29.73 in 10.0 mi NW 13.8 mph - N/A   Overcast
7:15 AM 55.4 °F - 41.0 °F 58% 29.75 in 10.0 mi NW 12.7 mph 17.3 mph N/A   Overcast
7:35 AM 55.4 °F - 39.2 °F 54% 29.77 in 10.0 mi NW 10.4 mph - N/A   Overcast
8:15 AM 53.6 °F - 33.8 °F 47% 29.80 in 10.0 mi WNW 17.3 mph 21.9 mph N/A   Overcast
8:55 AM 53.6 °F - 32.0 °F 44% 29.83 in 10.0 mi WNW 16.1 mph 20.7 mph N/A   Scattered Clouds
9:15 AM 53.6 °F - 28.4 °F 38% 29.84 in 10.0 mi NW 20.7 mph 29.9 mph N/A   Scattered Clouds
9:35 AM 53.6 °F - 30.2 °F 41% 29.85 in 10.0 mi NW 20.7 mph 26.5 mph N/A   Scattered Clouds
10:15 AM 51.8 °F - 30.2 °F 44% 29.85 in 10.0 mi NW 12.7 mph 19.6 mph N/A   Scattered Clouds
10:35 AM 51.8 °F - 30.2 °F 44% 29.86 in 10.0 mi NW 15.0 mph 20.7 mph N/A   Scattered Clouds
10:55 AM 50.0 °F - 32.0 °F 50% 29.87 in 10.0 mi WNW 9.2 mph - N/A   Scattered Clouds
11:15 AM 51.8 °F - 30.2 °F 44% 29.89 in 10.0 mi West 12.7 mph 21.9 mph N/A   Clear
11:35 AM 51.8 °F - 28.4 °F 41% 29.89 in 10.0 mi West 12.7 mph 25.3 mph N/A   Clear
11:55 AM 53.6 °F - 28.4 °F 38% 29.90 in 10.0 mi West 13.8 mph 18.4 mph N/A   Clear
12:15 PM 53.6 °F - 23.0 °F 30% 29.91 in 10.0 mi WNW 18.4 mph 36.8 mph N/A   Clear
12:35 PM 51.8 °F - 26.6 °F 38% 29.91 in 10.0 mi NW 21.9 mph 32.2 mph N/A   Clear
12:55 PM 53.6 °F - 26.6 °F 35% 29.92 in 10.0 mi WNW 21.9 mph 28.8 mph N/A   Clear
1:35 PM 51.8 °F - 28.4 °F 41% 29.93 in 10.0 mi NW 20.7 mph 28.8 mph N/A   Clear
1:55 PM 53.6 °F - 28.4 °F 38% 29.94 in 10.0 mi NW 16.1 mph 23.0 mph N/A   Clear
2:35 PM 51.8 °F - 28.4 °F 41% 29.96 in 10.0 mi WNW 16.1 mph 27.6 mph N/A   Clear
2:55 PM 51.8 °F - 30.2 °F 44% 29.97 in 10.0 mi NW 15.0 mph 23.0 mph N/A   Scattered Clouds
3:35 PM 50.0 °F - 30.2 °F 47% 30.00 in 10.0 mi NW 18.4 mph 27.6 mph N/A   Clear
3:55 PM 50.0 °F - 28.4 °F 43% 30.00 in 10.0 mi NW 17.3 mph 28.8 mph N/A   Clear
4:15 PM 50.0 °F - 30.2 °F 47% 30.02 in 10.0 mi NW 19.6 mph 23.0 mph N/A   Clear
4:35 PM 50.0 °F - 28.4 °F 43% 30.02 in 10.0 mi NW 17.3 mph 24.2 mph N/A   Clear
4:55 PM 48.2 °F - 28.4 °F 46% 30.04 in 10.0 mi NW 15.0 mph 21.9 mph N/A   Clear
5:15 PM 46.4 °F 41.5 °F 30.2 °F 53% 30.04 in 10.0 mi NW 10.4 mph 21.9 mph N/A   Scattered Clouds
5:35 PM 46.4 °F 39.8 °F 26.6 °F 46% 30.05 in 10.0 mi NW 16.1 mph 24.2 mph N/A   Scattered Clouds
5:55 PM 44.6 °F 37.4 °F 26.6 °F 49% 30.06 in 10.0 mi NW 16.1 mph 21.9 mph N/A   Clear
6:15 PM 44.6 °F 38.8 °F 26.6 °F 49% 30.08 in 10.0 mi NW 11.5 mph 17.3 mph N/A   Clear
6:35 PM 42.8 °F 38.6 °F 28.4 °F 57% 30.09 in 10.0 mi NW 6.9 mph - N/A   Clear
6:55 PM 42.8 °F 38.0 °F 28.4 °F 57% 30.11 in 10.0 mi NW 8.1 mph - N/A   Clear
7:15 PM 42.8 °F 37.5 °F 26.6 °F 53% 30.12 in 10.0 mi NW 9.2 mph 16.1 mph N/A   Clear
7:35 PM 42.8 °F 38.0 °F 26.6 °F 53% 30.13 in 10.0 mi NW 8.1 mph - N/A   Clear
7:55 PM 41.0 °F 36.4 °F 28.4 °F 61% 30.14 in 10.0 mi NW 6.9 mph - N/A   Clear
8:15 PM 41.0 °F 35.8 °F 28.4 °F 61% 30.15 in 10.0 mi NW 8.1 mph - N/A   Clear
8:35 PM 41.0 °F 37.1 °F 28.4 °F 61% 30.15 in 10.0 mi NW 5.8 mph - N/A   Clear
8:55 PM 37.4 °F 34.9 °F 28.4 °F 70% 30.16 in 10.0 mi NW 3.5 mph - N/A   Clear
9:15 PM 39.2 °F 37.0 °F 28.4 °F 65% 30.17 in 10.0 mi NW 3.5 mph - N/A   Clear
9:35 PM 39.2 °F - 28.4 °F 65% 30.18 in 10.0 mi Calm Calm - N/A   Clear
9:55 PM 37.4 °F - 28.4 °F 70% 30.18 in 10.0 mi Calm Calm - N/A   Clear
10:35 PM 35.6 °F - 30.2 °F 81% 30.18 in 10.0 mi Calm Calm - N/A   Clear
10:55 PM 33.8 °F - 30.2 °F 87% 30.18 in 10.0 mi Calm Calm - N/A   Clear
11:15 PM 33.8 °F - 30.2 °F 87% 30.19 in 10.0 mi Calm Calm - N/A   Clear